CZ-6A DEB, 55900

Orbit data source: Space-Track

CZ-6A DEB, 55900 is space debris in SSO originally from a launch on Fri, 11 Nov 2022 UTC launched from the Taiyaun Space Center, China (TSC). Debris objects in space refer to the collection of defunct objects orbiting the Earth. Examples of debris include non-operational satellites, rocket bodies, and fragments generated from explosions, collisions, or faulty payload assembly.

Loading next visibility...
Identifier
55900, 2022-151AAY
Orbit
SSO
Country
Flag of CNCN / PRC
Related business
Manufacturer
SAST
Mission
Spacecraft
Bus & Motor
Unknown
Mass
Unknown
Launch date (UTC)
2022-11-11 (4 years ago)
Launch vehicle
Unknown
Launch site
Taiyaun Space Center, China (TSC)
Object type
Payload
Rocket body
Debris
Shape & HBR
Unknown shape, 0.1 m
Radar Cross Section
Small (<0.1 m²)

Expand to show TLE details & history
Last TLE update: 1 day ago

TLE from 1 day ago
0 CZ-6A DEB
1 55900U 22151AAY 26264.51523598  .00000822  00000-0  39180-3 0  9994
2 55900  98.7686 274.1711 0037760  58.4220 302.0634 14.21623385193312
Epoch: 2026-09-21T12:21Z
TLE epoch observation values (Epoch: 2026-09-21T12:21:56.388Z)
Latitude
-0.00011°
Longitude
88.29221°
Altitude
808.425 km
Speed
7.457 km/s
True Right ascension
18h 16m 41s
True Declination
0° 00' 00"
Sunlit
Object was in daylight at epoch
Visualization orbit readout
Latitude
Unknown
Longitude
Unknown
Altitude
Unknown
Speed
Unknown
Apparent Right ascension
Unknown
Apparent Declination
Unknown
Sunlit
N/A
Visualization observer readout
Local Sidereal Time
17:13:03
Azimuth
Unknown
Elevation
Unknown
Doppler factor
Unknown
Orbital elements
Apogee altitude
844.196 km
Perigee altitude
789.858 km
Semi-major axis
7,195.164 km
Eccentricity
0.00378
Inclination
98.7686°
RAAN
274.1711°
Arg. of periapsis
58.422°
True anomaly
301.69579°
Mean anomaly
302.0634°
Eccentric anomaly
301.87969°
Mean motion
3.55617 °/min
Orbital period
101.23 mins
BSTAR
0.0003918
Loading maneuver chart data...
Computing Atmospheric mass density...

Documentation

Showing up to 5 results
|